Regional Weather Roundup
Issued by NWS

Home | Current Version | Previous Version | Text Only | Print | Product List | Glossary On
Versions: 1 2 3 4 5 6 7 8 9 10 11 12 13 14 15 16 17 18 19 20 21 22 23 24 25 26 27 28 29 30 31 32 33 34 35 36 37 38 39 40 41 42 43 44 45 46 47 48 49 50
000
ASUS43 KMKX 190200
RWRWI

WISCONSIN REGIONAL WEATHER ROUNDUP
NATIONAL WEATHER SERVICE MILWAUKEE/SULLIVAN WI
900 PM CDT THU SEP 18 2014

NOTE: "FAIR" INDICATES FEW OR NO CLOUDS BELOW 12,000 FEET WITH NO
SIGNIFICANT WEATHER AND/OR OBSTRUCTIONS TO VISIBILITY.

WIZ001-002-006>008-014>016-023>028-190300-
NORTHWEST WISCONSIN

CITY           SKY/WX    TMP DP  RH WIND       PRES   REMARKS
SUPERIOR ARPT  CLOUDY    48  46  93 NE7       30.05F
ASHLAND        CLEAR     41  40  96 CALM      30.08F
HAYWARD        CLEAR     54  51  90 S5        30.07S
SIREN          CLEAR     56  53  88 SE6       30.04R
RICE LAKE      CLEAR     55  51  87 E6        30.08R
LADYSMITH      CLEAR     53  50  90 SE7       30.11R
EAU CLAIRE     NOT AVBL
MENOMONIE      CLEAR     57  54  89 E6        30.07R
NEW RICHMOND   CLEAR     58  55  90 SE8       30.04R
OSCEOLA        CLEAR     60  57  91 SE9       30.05R
$$

WIZ003>005-009-010-017-018-190300-
NORTH CENTRAL WISCONSIN

CITY           SKY/WX    TMP DP  RH WIND       PRES   REMARKS
WOODRUFF       CLEAR     51  49  92 CALM      30.11R
RHINELANDER    CLEAR     48  46  93 SE3       30.14R
EAGLE RIVER    CLEAR     47  47  97 CALM      30.12R
LAND O LAKES   CLEAR     43  42  97 CALM      30.12R
PHILLIPS       CLEAR     50  47  92 SE3       30.10R
TOMAHAWK       CLEAR     46  44  96 CALM      30.13R FOG
MEDFORD        CLEAR     48  46  95 SE3       30.12R
MERRILL        CLEAR     50  48  94 S3        30.12S
$$

WIZ029-030-035-036-043>047-190300-
CENTRAL WISCONSIN

CITY           SKY/WX    TMP DP  RH WIND       PRES   REMARKS
WAUSAU         CLEAR     50  47  89 E5        30.12R
MOSINEE        CLEAR     48  48 100 SE6       30.14R
MARSHFIELD     CLEAR     50  48  93 E3        30.13R
STEVENS POINT  CLEAR     47  46  96 SE3       30.14R
WAUPACA        CLEAR     52  50  95 CALM      30.15R
WAUTOMA        NOT AVBL
WISC RAPIDS    CLEAR     51  49  92 SE6       30.15R
CAMP DOUGLAS   NOT AVBL
$$

WIZ011>013-019>022-031-037>040-048>050-190300-
NORTHEAST WISCONSIN

CITY           SKY/WX    TMP DP  RH WIND       PRES   REMARKS
ANTIGO         CLEAR     46  45  96 SE7       30.15R
STURGEON BAY   CLEAR     48  43  81 SE3       30.17S
GREEN BAY      CLEAR     49  47  93 SE3       30.17R
MANITOWOC      NOT AVBL
APPLETON       MOCLDY    52  46  82 SE7       30.16R
CLINTONVILLE   CLEAR     50  46  87 CALM      30.15R
OSHKOSH        CLEAR     53  50  89 SE7       30.15R
$$

WIZ032>034-041-042-053>061-190300-
SOUTHWEST WISCONSIN

CITY           SKY/WX    TMP DP  RH WIND       PRES   REMARKS
LA CROSSE      CLEAR     61  55  81 E7        30.08R
SPARTA         CLEAR     54  52  94 E3        30.11R
VIROQUA        FAIR      56  56 100 SE8       30.10R
BOSCOBEL       CLEAR     57  54  89 NE3       30.11R
PRAIRIE DU CHI CLEAR     60  53  78 E6        30.08R
PLATTEVILLE    FAIR      57  52  84 CALM      30.11R
$$

WIZ056-057-062-063-064-067-068-190300-
SOUTH CENTRAL WISCONSIN

CITY           SKY/WX    TMP DP  RH WIND       PRES   REMARKS
BARABOO/DELLS  CLEAR     53  50  90 CALM      30.13R
LONE ROCK      NOT AVBL
WATERTOWN      CLEAR     53  52  96 E7        30.14S
MADISON        PTCLDY    58  53  84 SE7       30.14R
MIDDLETON      FAIR      52  52  98 CALM      30.13S
MONROE         CLEAR     57  54  88 E6        30.12S
JANESVILLE     CLEAR     57  54  88 E9        30.13R
$$

WIZ051-052-058>065-066-070>072-190300-
SOUTHEAST WISCONSIN

CITY           SKY/WX    TMP DP  RH WIND       PRES   REMARKS
MILWAUKEE      CLOUDY    56  51  84 NE3       30.18R
WAUKESHA       CLOUDY    52  48  87 E7        30.18R
MILWAUKEE/TIMM CLOUDY    54  48  82 NE5       30.18R
RACINE         CLOUDY    55  51  86 N5        30.18R
BURLINGTON     CLOUDY    53  51  94 E5        30.17R
KENOSHA        PTCLDY    52  51  97 NE5       30.17R
FOND DU LAC    CLEAR     52  48  86 SE9       30.16R
SHEBOYGAN      CLEAR     45  43  93 CALM      30.17S
WEST BEND      CLEAR     50  46  87 CALM      30.17S FOG
JUNEAU         CLEAR     53  50  92 E9        30.16R
$$

LSZ147-162-190300-
LAKE SUPERIOR

STATION/POSITION TIME  TEMP    WIND        PRES    WAVE
                       AIR SEA DIR/SP/G            HT/PER
                 (UTC) (F)     (DEG/KT/KT) (MB)    (FT/S)
W MID LAKE BUOY  0050   47 47   80/  8/ 10 1019.1F   1/ 3
DEVILS ISLAND    0100   48      90/ 10/ 11 1019.1F
PORT WING        0100   49      80/  4/  6 1018.3
SAXON HARBOR     0140   45     200/  4/  5 1018.6S
$$

LMZ867-665-643>646-190300-
LAKE MICHIGAN

STATION/POSITION TIME  TEMP    WIND        PRES    WAVE
                       AIR SEA DIR/SP/G            HT/PER
                 (UTC) (F)     (DEG/KT/KT) (MB)    (FT/S)
N MID LAKE BUOY  0050   53 58   70/  2/  4 1022.1R   0
NORTHPORT PIER   0100   53     110/  7/  9 1021.3R
KEWAUNEE LAKESHO 0100   53     100/  4/  5 1020.4R
SHEBOYGAN LAKESH 0100   51 49   30/  4/  4 1022.0R
PORT WASHINGTON  0140   56     100/  4/  5 1022.0S
ATWATER BUOY     0100   56      60/  4/  6 1022.4R
MILWAUKEE LAKESH 0100   56      20/  7/  8   N/A
S MID LAKE BUOY  0050   60 65  360/  8/ 10 1020.9R   2/ 6
KENOSHA   LAKESH 0100   57      10/  8/  8 1021.0R
$$

TC  - TEMPERATURE IN CELSIUS
VSB - VISIBILITY IN STATUTE MILES
WCI - WIND CHILL INDEX
HX  - HEAT INDEX



USA.gov is the U.S. government's official web portal to all federal, state and local government web resources and services.